686  
SXUS52 KCHS 310712  
OSOCHS  
 
MARINE OBSERVATIONS  
NATIONAL WEATHER SERVICE CHARLESTON SC  
300 AM EDT SUN MAY 31 2020  
   
..DOWNTOWN CHARLESTON AND HARBOR
 
 
 
CITY SKY/WX TMP DP RH WIND PRES REMARKS  
WATERFRONT PRK N/A 76 75 96 VRB3 29.80S  
   
..LAKE MOULTRIE
 
 
 
CITY SKY/WX TMP DP RH WIND PRES REMARKS  
PINOPOLIS N/A 73 70 88 CALM 29.89F  
   
..LAKE AND SUPPLEMENTAL COASTAL OBSERVATIONS
 
 
 
STATION/POSITION TIME TEMP WIND PRES WAVE SWELL  
AIR SEA DIR/SP/G HT/PER HT/PER/DIR  
(UTC) (F) (DEG/KT/KT) (MB) (FT/S) (FT/S/D)  
CHRLSTN HARBOR 0630 77 80 230/ 5/ 7 1014.5F  
FORT PULASKI 0630 77 79 270/ 3/ 4 1015.3F  
SAPELO ISLAND 0600 76 290/ 5 1015.0  
WINYAH BAY 0545 73 270/ 5 1014.0  
LAKE MURRAY 0620 73 320/ 1/ 4 N/A  
ACE BASIN NERRS NOT AVBL  
 
   
..C-MAN AND BUOY OBSERVATIONS
 
 
 
STATION/POSITION TIME TEMP WIND PRES WAVE SWELL  
AIR SEA DIR/SP/G HT/PER HT/PER/DIR  
(UTC) (F) (DEG/KT/KT) (MB) (FT/S) (FT/S/D)  
BUOY 41004 0700 76 1014.0  
BUOY 41008 0650 78 78 250/ 10/ 12 1014.3F 3/ 8 2/120/ 8  
FOLLY BEACH CMAN 0700 78 230/ 6/ 9 1014.7F  
PRITCHARDS ISLAN NOT AVBL  
CAPERS NS BUOY 0608 78 79 250/ 10/ 14 1014.1F  
FRIPP NS BUOY NOT AVBL  
5E ST. MARYS GA 0700 78 N/A 3/ 8  
 
 
STATION/POSITION TIME TEMP WIND PRES WAVE SWELL  
AIR SEA DIR/SP/G HT/PER HT/PER/DIR  
(UTC) (F) (DEG/KT/KT) (MB) (FT/S) (FT/S/D)  
FRYING PAN BUOY 0700 76 78 270/ 12/ 16 1012.9  
BUOY 41025 0700 74 79 330/ 14/ 17 N/A  
CAPE LOOKOUT NC 0700 74 290/ 7/ 9 1013.0F  
BUOY 41002 0700 77 79 220/ 17/ 21 1014.3  
BUOY 41010 0650 80 200/ 12/ 16 N/A 4/ 8 3/ 70/ 8  
ST AUGUSTINE FL 0700 74 76 1015.6F  
 

 
 
 
CLICK HERE TO GO TO PREVIOUS BULLETINS.

The Nexlab SC Page
The Nexlab GA Page Main Text Page